This is the latest recevied weather packets stored in our database for station/object N0ZJT. If no packets are shown the sender has not sent any weather packets the latest 10 day(s).
| Time | Temp. | Humidity | Pressure | Rain* | Wind** | Luminosity | Snow |
|---|---|---|---|---|---|---|---|
| 1777694330 | 6.67° C | 50% | 980.7 hPa | 0 mm | - | - | - |
| 1777693490 | 7.22° C | 49% | 980.6 hPa | 0 mm | - | - | - |
| 1777692771 | 7.22° C | 47% | 980.6 hPa | 0 mm | - | - | - |
| 1777692530 | 7.22° C | 47% | 980.6 hPa | 0 mm | - | - | - |
| 1777691690 | 7.78° C | 47% | 980.5 hPa | 0 mm | - | - | - |
| 1777690730 | 8.33° C | 45% | 980.4 hPa | 0 mm | - | - | - |
| 1777689890 | 8.33° C | 44% | 980.2 hPa | 0 mm | - | - | - |
| 1777688930 | 8.89° C | 43% | 979.8 hPa | 0 mm | - | - | - |
| 1777688090 | 8.89° C | 42% | 979.7 hPa | 0 mm | - | - | - |
| 1777687130 | 9.44° C | 41% | 979.8 hPa | 0 mm | - | - | - |
| 1777686290 | 10° C | 40% | 979.3 hPa | 0 mm | - | - | - |
| 1777685581 | 10° C | 39% | 979.2 hPa | 0 mm | - | - | - |
| 1777685330 | 10° C | 39% | 979.2 hPa | 0 mm | - | - | - |
| 1777684490 | 10.56° C | 39% | 979.1 hPa | 0 mm | - | - | - |
| 1777683530 | 10.56° C | 37% | 978.9 hPa | 0 mm | - | - | - |
| 1777682690 | 11.11° C | 36% | 978.7 hPa | 0 mm | - | - | - |
| 1777681730 | 11.67° C | 35% | 978.7 hPa | 0 mm | - | - | - |
| 1777680890 | 11.67° C | 35% | 978.8 hPa | 0 mm | - | - | - |
| 1777679930 | 12.22° C | 35% | 978.4 hPa | 0 mm | - | - | - |
| 1777679090 | 12.22° C | 34% | 978.4 hPa | 0 mm | - | - | - |
| 1777678381 | 12.78° C | 33% | 978.3 hPa | 0 mm | - | - | - |
| 1777678130 | 12.78° C | 33% | 978.3 hPa | 0 mm | - | - | - |
| 1777677290 | 12.78° C | 34% | 978.4 hPa | 0 mm | - | - | - |
| 1777676330 | 13.33° C | 33% | 978.4 hPa | 0 mm | - | - | - |
| 1777675742 | 13.89° C | 33% | 978.3 hPa | 0 mm | - | - | - |
* Rain latest hour (hover to see other rain measurements)
** Current wind speed in m/s (hover to see current wind gust speed)